Weather History for KLWV - September, 2013

Change the Weather History Date:

Wednesday, September 18, 2013

  Actual Average Record
Temperature  
Mean Temperature 72 °F 69 °F  
Max Temperature 81 °F 81 °F 91 °F (2007)
Min Temperature 62 °F 56 °F 44 °F (2012)
Degree Days  
Heating Degree Days 0 1  
Month to date heating degree days 7 5  
Since 1 July heating degree days 12 6  
Cooling Degree Days 7 5  
Month to date cooling degree days 144 128  
Year to date cooling degree days 1199 1311  
Growing Degree Days 21 (Base 50)    
Moisture  
Dew Point 66 °F    
Average Humidity 84    
Maximum Humidity 100    
Minimum Humidity 67    
Precipitation  
Precipitation 0.18 in 0.09 in 1.00 in (2011)
Month to date precipitation 0.30 1.91  
Year to date precipitation 41.94 31.26  
Sea Level Pressure  
Sea Level Pressure 30.08 in    
Wind  
Wind Speed 5 mph (SE)    
Max Wind Speed 12 mph    
Max Gust Speed 15 mph    
Visibility 4 miles    
Events Rain    
T = Trace of Precipitation, MM = Missing Value Source: NWS Daily Summary

Daily Weather History Graph

Daily Weather History Graph

Search for Another Location

Airport or City:

Trip Planner

Search our weather history database for the weather conditions in past years. The results will help you decide how hot, cold, wet, or windy it might be!

Date:

Astronomy

Sep. 18, 2013 Rise Set
Actual Time 6:34 AM CDT 6:53 PM CDT
Civil Twilight 6:08 AM CDT 7:20 PM CDT
Nautical Twilight 5:36 AM CDT 7:51 PM CDT
Astronomical Twilight 5:05 AM CDT 8:22 PM CDT
Moon 6:16 PM CDT (9/18) 5:37 AM CDT (9/18)
Length of Visible Light 13h 11m
Length of Day
12h 18m
Waxing Gibbous, 99% of the Moon is Illuminated
Sep 18
Waxing Gibbous
Sep 19
Full
Sep 26
Last Quarter
Oct 4
New
Oct 11
First Quarter

Hourly Weather History & Observations

Time (CDT) Temp. Heat Index Dew Point Humidity Pressure Visibility Wind Dir Wind Speed Gust Speed Precip Events Conditions
12:53 AM 63.0 °F - 55.9 °F 78% 30.11 in 8.0 mi East 4.6 mph - N/A   Clear
1:53 AM 63.0 °F - 57.0 °F 81% 30.11 in 7.0 mi East 3.5 mph - N/A   Clear
2:53 AM 64.0 °F - 57.0 °F 78% 30.10 in 7.0 mi Calm Calm - N/A   Clear
3:53 AM 63.0 °F - 57.0 °F 81% 30.09 in 7.0 mi East 3.5 mph - N/A   Clear
4:53 AM 63.0 °F - 57.0 °F 81% 30.09 in 7.0 mi ENE 3.5 mph - N/A   Clear
5:53 AM 63.0 °F - 57.9 °F 84% 30.11 in 7.0 mi ENE 3.5 mph - N/A   Scattered Clouds
6:53 AM 63.0 °F - 57.9 °F 84% 30.12 in 7.0 mi ENE 3.5 mph - N/A   Overcast
7:53 AM 63.0 °F - 59.0 °F 87% 30.14 in 4.0 mi Calm Calm - 0.00 in Rain Light Rain
8:26 AM 62.6 °F - 60.8 °F 94% 30.14 in 2.5 mi Calm Calm - 0.02 in Rain Light Rain
8:53 AM 63.0 °F - 62.1 °F 97% 30.15 in 2.5 mi Calm Calm - 0.06 in Rain Light Rain
9:36 AM 64.4 °F - 62.6 °F 94% 30.16 in 3.0 mi South 3.5 mph - 0.04 in Rain Light Rain
9:53 AM 64.9 °F - 63.0 °F 93% 30.15 in 2.5 mi Calm Calm - 0.05 in Rain Light Rain
10:05 AM 64.4 °F - 62.6 °F 94% 30.15 in 1.2 mi Calm Calm - 0.03 in Rain Rain
10:44 AM 64.4 °F - 64.4 °F 100% 30.15 in 2.0 mi SSE 5.8 mph - 0.07 in   Overcast
10:49 AM 66.2 °F - 64.4 °F 94% 30.14 in 1.8 mi SSE 5.8 mph - 0.07 in   Overcast
10:53 AM 66.0 °F - 64.9 °F 96% 30.14 in 1.8 mi SSE 4.6 mph - 0.07 in   Overcast
11:11 AM 66.2 °F - 64.4 °F 94% 30.13 in 1.8 mi SSE 6.9 mph - N/A   Overcast
11:25 AM 66.2 °F - 66.2 °F 100% 30.13 in 2.0 mi SSE 5.8 mph - N/A   Mostly Cloudy
11:53 AM 69.1 °F - 66.9 °F 93% 30.12 in 2.0 mi Calm Calm - N/A   Overcast
12:36 PM 71.6 °F - 69.8 °F 94% 30.11 in 3.0 mi SSE 4.6 mph - N/A   Mostly Cloudy
12:44 PM 71.6 °F - 69.8 °F 94% 30.11 in 3.0 mi ESE 4.6 mph - N/A   Scattered Clouds
12:53 PM 73.0 °F - 70.0 °F 90% 30.10 in 3.0 mi SSE 5.8 mph - N/A   Scattered Clouds
1:53 PM 79.0 °F - 68.0 °F 69% 30.08 in 6.0 mi SSW 6.9 mph - N/A   Haze
2:04 PM 78.8 °F - 68.0 °F 69% 30.08 in 5.0 mi SSE 5.8 mph - N/A   Haze
2:53 PM 80.1 °F 82.7 °F 68.0 °F 67% 30.05 in 6.0 mi SSE 10.4 mph - N/A   Haze
3:43 PM 80.6 °F 83.2 °F 68.0 °F 65% 30.05 in 5.0 mi South 9.2 mph - N/A   Haze
3:51 PM 80.6 °F 83.2 °F 68.0 °F 65% 30.05 in 5.0 mi SE 10.4 mph - N/A   Haze
3:53 PM 80.1 °F 82.7 °F 68.0 °F 67% 30.04 in 5.0 mi SE 10.4 mph - N/A   Haze
4:53 PM 80.1 °F 82.9 °F 69.1 °F 69% 30.03 in 4.0 mi SSE 9.2 mph - N/A   Haze
5:10 PM 80.6 °F 83.9 °F 69.8 °F 70% 30.04 in 4.0 mi South 9.2 mph - N/A   Haze
5:53 PM 78.1 °F - 68.0 °F 71% 30.03 in 4.0 mi South 5.8 mph - N/A   Haze
6:42 PM 75.2 °F - 69.8 °F 83% 30.03 in 2.5 mi SE 6.9 mph - N/A   Haze
6:53 PM 73.9 °F - 70.0 °F 87% 30.02 in 2.5 mi ESE 6.9 mph - N/A   Mostly Cloudy
7:08 PM 73.4 °F - 69.8 °F 88% 30.03 in 3.0 mi ESE 6.9 mph - N/A   Mostly Cloudy
7:53 PM 71.1 °F - 69.1 °F 93% 30.04 in 3.0 mi SE 5.8 mph - N/A   Clear
8:19 PM 69.8 °F - 69.8 °F 100% 30.04 in 2.5 mi SE 6.9 mph - N/A   Clear
8:53 PM 71.1 °F - 69.1 °F 93% 30.04 in 2.5 mi ESE 3.5 mph - N/A   Clear
9:19 PM 71.6 °F - 69.8 °F 94% 30.05 in 3.0 mi SE 5.8 mph - N/A   Clear
9:53 PM 71.1 °F - 70.0 °F 96% 30.04 in 3.0 mi SSE 6.9 mph - N/A   Clear
10:09 PM 71.6 °F - 69.8 °F 94% 30.04 in 2.5 mi SSE 6.9 mph - N/A   Clear
10:23 PM 71.6 °F - 69.8 °F 94% 30.04 in 3.0 mi SSE 5.8 mph - N/A   Clear
10:30 PM 71.6 °F - 69.8 °F 94% 30.04 in 2.5 mi SSE 6.9 mph - N/A   Clear
10:53 PM 71.1 °F - 70.0 °F 96% 30.04 in 3.0 mi South 6.9 mph - N/A   Clear
11:21 PM 71.6 °F - 69.8 °F 94% 30.05 in 2.5 mi South 5.8 mph - N/A   Clear
11:30 PM 71.6 °F - 69.8 °F 94% 30.05 in 3.0 mi South 5.8 mph - N/A   Clear
11:53 PM 70.0 °F - 69.1 °F 97% 30.04 in 3.0 mi South 6.9 mph - N/A   Clear